Location: Alsip
(41.6689°N, 87.7387°W)
Time: 13:46:18
(UTC+00:00)

CZ-4C R/B - Pass Details

Date: 14 July 2020
Orbit: 632 x 1369 km, 63.4° (Epoch: 04 August)

Event Time Altitude Azimuth Distance (km) Brightness Sun altitude
Rises 05:30:15 0° 322° (NW) 3,911 6.5 -26.4°
Reaches altitude 10° 05:32:48 10° 319° (NW) 3,046 5.8 -26.5°
Maximum altitude 05:40:10 65° 240° (WSW) 1,389 3.1 -26.6°
Enters shadow 05:41:59 52° 189° (S) 1,569 3.1 -26.6°
